This is the latest recevied weather packets stored in our database for station/object HB9FHL-13. If no packets are shown the sender has not sent any weather packets the latest 10 day(s).
| Time | Temp. | Humidity | Pressure | Rain* | Wind** | Luminosity | Snow |
|---|---|---|---|---|---|---|---|
| 1788048065 | 18.89° C | - | 1020.6 hPa | 0 mm | - | - | - |
| 1788047754 | 20.56° C | - | 1020.7 hPa | 0 mm | - | - | - |
| 1788047452 | 19.44° C | - | 1017.9 hPa | 0 mm | - | - | - |
| 1788047152 | 20° C | - | 1019.6 hPa | 0 mm | - | - | - |
| 1788046853 | 20.56° C | - | 1020.7 hPa | 0 mm | - | - | - |
| 1788046250 | 20° C | - | 1012.3 hPa | 0 mm | - | - | - |
| 1788045947 | 19.44° C | - | 1017.8 hPa | 0 mm | - | - | - |
| 1788045646 | 18.89° C | - | 1020.5 hPa | 0 mm | - | - | - |
| 1788045345 | 18.89° C | - | 1020.4 hPa | 0 mm | - | - | - |
| 1788045045 | 20° C | - | 1019.9 hPa | 0 mm | - | - | - |
| 1788044744 | 19.44° C | - | 1023.2 hPa | 0 mm | - | - | - |
| 1788044444 | 20° C | - | 1021.5 hPa | 0 mm | - | - | - |
| 1788044338 | 19.44° C | - | 1015.5 hPa | 0 mm | - | - | - |
| 1788044143 | 19.44° C | - | 1015.5 hPa | 0 mm | - | - | - |
| 1788043890 | 19.44° C | - | 1015.7 hPa | 0 mm | - | - | - |
| 1788043842 | 19.44° C | - | 1015.7 hPa | 0 mm | - | - | - |
| 1788043542 | 19.44° C | - | 1016.6 hPa | 0 mm | - | - | - |
| 1788043243 | 19.44° C | - | 1023.5 hPa | 0 mm | - | - | - |
| 1788042941 | 20° C | - | 1021.6 hPa | 0 mm | - | - | - |
| 1788042641 | 20° C | - | 1014.3 hPa | 0 mm | - | - | - |
| 1788042037 | 19.44° C | - | 1016.6 hPa | 0 mm | - | - | - |
| 1788041737 | 20° C | - | 1027.2 hPa | 0 mm | - | - | - |
| 1788041498 | 19.44° C | - | 1019.5 hPa | 0 mm | - | - | - |
| 1788041437 | 19.44° C | - | 1019.5 hPa | 0 mm | - | - | - |
| 1788041136 | 20° C | - | 1018.1 hPa | 0 mm | - | - | - |
* Rain since midnight (hover to see other rain measurements)
** Current wind speed in m/s (hover to see current wind gust speed)